Time,TemperatureF,DewpointF,PressureIn,WindDirection,WindDirectionDegrees,WindSpeedMPH,WindSpeedGustMPH,Humidity,HourlyPrecipIn,Conditions,Clouds,dailyrainin,SoftwareType,DateUTC
2013-02-18 00:00:00,22.1,16.9,30.28,NNW,331,0.0,0.0,80,0.00,,,0.00,Wunderground v.1.15,2013-02-18 05:00:00,
2013-02-18 00:10:00,22.1,16.6,30.28,NNW,331,0.0,0.0,79,0.00,,,0.00,Wunderground v.1.15,2013-02-18 05:10:00,
2013-02-18 00:15:00,22.0,16.8,30.28,NNW,331,0.0,0.0,80,0.00,,,0.00,Wunderground v.1.15,2013-02-18 05:15:00,
2013-02-18 00:20:00,22.0,17.1,30.28,NNW,331,0.0,0.0,81,0.00,,,0.00,Wunderground v.1.15,2013-02-18 05:20:00,
2013-02-18 00:25:00,21.9,17.0,30.28,NNW,331,0.0,0.0,81,0.00,,,0.00,Wunderground v.1.15,2013-02-18 05:25:00,
2013-02-18 00:30:00,21.8,16.6,30.28,NNW,331,0.0,0.0,80,0.00,,,0.00,Wunderground v.1.15,2013-02-18 05:30:00,
2013-02-18 00:35:00,21.7,16.2,30.28,NNW,331,0.0,0.0,79,0.00,,,0.00,Wunderground v.1.15,2013-02-18 05:35:00,
2013-02-18 00:40:00,21.6,15.8,30.29,NNW,331,0.0,0.0,78,0.00,,,0.00,Wunderground v.1.15,2013-02-18 05:40:00,
2013-02-18 00:50:00,21.5,16.3,30.29,NNW,331,0.0,0.0,80,0.00,,,0.00,Wunderground v.1.15,2013-02-18 05:50:00,
2013-02-18 00:55:00,21.4,17.0,30.29,NNW,331,0.0,0.0,83,0.00,,,0.00,Wunderground v.1.15,2013-02-18 05:55:00,
2013-02-18 01:00:00,21.3,16.7,30.30,NNW,331,0.0,0.0,82,0.00,,,0.00,Wunderground v.1.15,2013-02-18 06:00:00,
2013-02-18 01:05:00,21.4,17.0,30.30,NNW,331,0.0,0.0,83,0.00,,,0.00,Wunderground v.1.15,2013-02-18 06:05:00,
2013-02-18 01:15:00,21.3,16.9,30.30,NNW,331,0.0,0.0,83,0.00,,,0.00,Wunderground v.1.15,2013-02-18 06:15:00,
2013-02-18 01:20:00,21.2,16.8,30.30,NNW,331,0.0,0.0,83,0.00,,,0.00,Wunderground v.1.15,2013-02-18 06:20:00,
2013-02-18 01:25:00,21.2,16.8,30.30,NNW,331,0.0,0.0,83,0.00,,,0.00,Wunderground v.1.15,2013-02-18 06:25:00,
2013-02-18 01:35:00,21.1,17.0,30.30,NNW,331,0.0,0.0,84,0.00,,,0.00,Wunderground v.1.15,2013-02-18 06:35:00,
2013-02-18 01:40:00,21.0,16.9,30.31,NNW,331,0.0,0.0,84,0.00,,,0.00,Wunderground v.1.15,2013-02-18 06:40:00,
2013-02-18 01:45:00,20.9,16.8,30.31,NNW,331,0.0,0.0,84,0.00,,,0.00,Wunderground v.1.15,2013-02-18 06:45:00,
2013-02-18 01:55:00,20.8,16.7,30.30,NNW,331,0.0,0.0,84,0.00,,,0.00,Wunderground v.1.15,2013-02-18 06:55:00,
2013-02-18 02:00:00,20.8,17.0,30.30,NNW,331,0.0,0.0,85,0.00,,,0.00,Wunderground v.1.15,2013-02-18 07:00:00,
2013-02-18 02:05:00,20.7,16.9,30.31,NNW,331,0.0,0.0,85,0.00,,,0.00,Wunderground v.1.15,2013-02-18 07:05:00,
2013-02-18 02:15:00,20.6,16.5,30.31,NNW,331,0.0,0.0,84,0.00,,,0.00,Wunderground v.1.15,2013-02-18 07:15:00,
2013-02-18 02:20:00,20.5,16.7,30.32,NNW,331,0.0,0.0,85,0.00,,,0.00,Wunderground v.1.15,2013-02-18 07:20:00,
2013-02-18 02:25:00,20.4,16.6,30.32,NNW,331,0.0,0.0,85,0.00,,,0.00,Wunderground v.1.15,2013-02-18 07:25:00,
2013-02-18 02:35:00,20.3,16.8,30.32,NNW,331,0.0,0.0,86,0.00,,,0.00,Wunderground v.1.15,2013-02-18 07:35:00,
2013-02-18 02:40:00,20.2,16.7,30.32,NNW,331,0.0,0.0,86,0.00,,,0.00,Wunderground v.1.15,2013-02-18 07:40:00,
2013-02-18 02:45:00,20.2,17.0,30.32,NNW,331,0.0,0.0,87,0.00,,,0.00,Wunderground v.1.15,2013-02-18 07:45:00,
2013-02-18 02:50:00,20.1,16.9,30.32,NNW,331,0.0,0.0,87,0.00,,,0.00,Wunderground v.1.15,2013-02-18 07:50:00,
2013-02-18 03:00:00,20.0,16.8,30.32,NNW,331,0.0,0.0,87,0.00,,,0.00,Wunderground v.1.15,2013-02-18 08:00:00,
2013-02-18 03:05:00,19.9,16.7,30.32,NNW,331,0.0,0.0,87,0.00,,,0.00,Wunderground v.1.15,2013-02-18 08:05:00,
2013-02-18 03:10:00,19.9,16.9,30.32,NNW,331,0.0,0.0,88,0.00,,,0.00,Wunderground v.1.15,2013-02-18 08:10:00,
2013-02-18 03:20:00,19.9,16.9,30.32,NNW,331,0.0,0.0,88,0.00,,,0.00,Wunderground v.1.15,2013-02-18 08:20:00,
2013-02-18 03:25:00,19.9,16.9,30.32,NNW,331,0.0,0.0,88,0.00,,,0.00,Wunderground v.1.15,2013-02-18 08:25:00,
2013-02-18 03:30:00,19.9,16.9,30.32,NNW,331,0.0,0.0,88,0.00,,,0.00,Wunderground v.1.15,2013-02-18 08:30:00,
2013-02-18 03:40:00,19.8,16.8,30.32,NNW,331,0.0,0.0,88,0.00,,,0.00,Wunderground v.1.15,2013-02-18 08:40:00,
2013-02-18 03:45:00,19.8,16.8,30.32,NNW,331,0.0,0.0,88,0.00,,,0.00,Wunderground v.1.15,2013-02-18 08:45:00,
2013-02-18 03:50:00,19.7,16.7,30.32,NNW,331,0.0,0.0,88,0.00,,,0.00,Wunderground v.1.15,2013-02-18 08:50:00,
2013-02-18 04:00:00,19.5,16.5,30.32,NNW,331,0.0,0.0,88,0.00,,,0.00,Wunderground v.1.15,2013-02-18 09:00:00,
2013-02-18 04:05:00,19.5,16.8,30.33,NNW,331,0.0,0.0,89,0.00,,,0.00,Wunderground v.1.15,2013-02-18 09:05:00,
2013-02-18 04:10:00,19.5,16.8,30.33,NNW,331,0.0,0.0,89,0.00,,,0.00,Wunderground v.1.15,2013-02-18 09:10:00,
2013-02-18 04:15:00,19.5,16.8,30.33,NNW,331,0.0,0.0,89,0.00,,,0.00,Wunderground v.1.15,2013-02-18 09:15:00,
2013-02-18 04:25:00,19.4,16.9,30.33,NNW,331,0.0,0.0,90,0.00,,,0.00,Wunderground v.1.15,2013-02-18 09:25:00,
2013-02-18 04:30:00,19.4,16.7,30.33,NNW,331,0.0,0.0,89,0.00,,,0.00,Wunderground v.1.15,2013-02-18 09:30:00,
2013-02-18 04:35:00,19.4,16.7,30.33,NNW,331,0.0,0.0,89,0.00,,,0.00,Wunderground v.1.15,2013-02-18 09:35:00,
2013-02-18 04:40:00,19.3,16.6,30.34,NNW,331,0.0,0.0,89,0.00,,,0.00,Wunderground v.1.15,2013-02-18 09:40:00,
2013-02-18 04:50:00,19.3,16.8,30.34,NNW,331,0.0,0.0,90,0.00,,,0.00,Wunderground v.1.15,2013-02-18 09:50:00,
2013-02-18 04:55:00,19.2,16.7,30.34,NNW,331,0.0,0.0,90,0.00,,,0.00,Wunderground v.1.15,2013-02-18 09:55:00,
2013-02-18 05:00:00,19.1,16.7,30.34,NNW,331,0.0,0.0,90,0.00,,,0.00,Wunderground v.1.15,2013-02-18 10:00:00,
2013-02-18 05:10:00,19.1,16.7,30.35,NNW,331,0.0,0.0,90,0.00,,,0.00,Wunderground v.1.15,2013-02-18 10:10:00,
2013-02-18 05:15:00,19.0,16.8,30.35,NNW,331,0.0,0.0,91,0.00,,,0.00,Wunderground v.1.15,2013-02-18 10:15:00,
2013-02-18 05:20:00,19.0,16.8,30.35,NNW,331,0.0,0.0,91,0.00,,,0.00,Wunderground v.1.15,2013-02-18 10:20:00,
2013-02-18 05:30:00,19.1,16.9,30.36,NNW,331,0.0,0.0,91,0.00,,,0.00,Wunderground v.1.15,2013-02-18 10:30:00,
2013-02-18 05:35:00,19.1,16.9,30.36,NNW,331,0.0,0.0,91,0.00,,,0.00,Wunderground v.1.15,2013-02-18 10:35:00,
2013-02-18 05:40:00,19.1,16.9,30.36,NNW,331,0.0,0.0,91,0.00,,,0.00,Wunderground v.1.15,2013-02-18 10:40:00,
2013-02-18 05:50:00,18.9,16.7,30.36,NNW,331,0.0,0.0,91,0.00,,,0.00,Wunderground v.1.15,2013-02-18 10:50:00,
2013-02-18 05:55:00,18.9,16.7,30.37,NNW,331,0.0,0.0,91,0.00,,,0.00,Wunderground v.1.15,2013-02-18 10:55:00,
2013-02-18 06:00:00,18.8,16.6,30.37,NNW,331,0.0,0.0,91,0.00,,,0.00,Wunderground v.1.15,2013-02-18 11:00:00,
2013-02-18 06:10:00,18.7,16.5,30.37,NNW,331,0.0,0.0,91,0.00,,,0.00,Wunderground v.1.15,2013-02-18 11:10:00,
2013-02-18 06:15:00,18.6,16.4,30.37,NNW,331,0.0,0.0,91,0.00,,,0.00,Wunderground v.1.15,2013-02-18 11:15:00,
2013-02-18 06:20:00,18.6,16.4,30.37,NNW,331,0.0,0.0,91,0.00,,,0.00,Wunderground v.1.15,2013-02-18 11:20:00,
2013-02-18 06:30:00,18.4,16.2,30.37,NNW,331,0.0,0.0,91,0.00,,,0.00,Wunderground v.1.15,2013-02-18 11:30:00,
2013-02-18 06:35:00,18.4,16.2,30.37,NNW,331,0.0,0.0,91,0.00,,,0.00,Wunderground v.1.15,2013-02-18 11:35:00,
2013-02-18 06:40:00,18.4,16.2,30.37,NNW,331,0.0,0.0,91,0.00,,,0.00,Wunderground v.1.15,2013-02-18 11:40:00,
2013-02-18 06:50:00,18.4,16.2,30.38,NNW,331,0.0,0.0,91,0.00,,,0.00,Wunderground v.1.15,2013-02-18 11:50:00,
2013-02-18 06:55:00,18.4,16.5,30.38,NNW,331,0.0,0.0,92,0.00,,,0.00,Wunderground v.1.15,2013-02-18 11:55:00,
2013-02-18 07:00:00,18.4,16.5,30.38,NNW,331,0.0,0.0,92,0.00,,,0.00,Wunderground v.1.15,2013-02-18 12:00:00,
2013-02-18 07:10:00,18.4,16.5,30.38,NNW,331,0.0,0.0,92,0.00,,,0.00,Wunderground v.1.15,2013-02-18 12:10:00,
2013-02-18 07:15:00,18.4,16.5,30.39,NNW,331,0.0,0.0,92,0.00,,,0.00,Wunderground v.1.15,2013-02-18 12:15:00,
2013-02-18 07:20:00,18.4,16.5,30.39,NNW,331,0.0,0.0,92,0.00,,,0.00,Wunderground v.1.15,2013-02-18 12:20:00,
2013-02-18 07:25:00,18.4,16.5,30.39,NNW,331,0.0,0.0,92,0.00,,,0.00,Wunderground v.1.15,2013-02-18 12:25:00,
2013-02-18 07:35:00,18.5,16.6,30.39,NNW,331,0.0,0.0,92,0.00,,,0.00,Wunderground v.1.15,2013-02-18 12:35:00,
2013-02-18 07:40:00,18.6,16.9,30.39,NNW,331,0.0,0.0,93,0.00,,,0.00,Wunderground v.1.15,2013-02-18 12:40:00,
2013-02-18 07:45:00,18.9,17.2,30.39,NNW,331,0.0,0.0,93,0.00,,,0.00,Wunderground v.1.15,2013-02-18 12:45:00,
2013-02-18 07:55:00,19.2,17.5,30.39,NNW,331,0.0,0.0,93,0.00,,,0.00,Wunderground v.1.15,2013-02-18 12:55:00,
2013-02-18 08:00:00,19.5,17.8,30.39,NNW,331,0.0,0.0,93,0.00,,,0.00,Wunderground v.1.15,2013-02-18 13:00:00,
2013-02-18 08:05:00,19.7,18.0,30.39,NNW,331,0.0,0.0,93,0.00,,,0.00,Wunderground v.1.15,2013-02-18 13:05:00,
2013-02-18 08:15:00,20.5,19.0,30.40,ESE,115,0.0,0.0,94,0.00,,,0.00,Wunderground v.1.15,2013-02-18 13:15:00,
2013-02-18 08:20:00,20.8,19.1,30.40,ESE,115,0.0,0.0,93,0.00,,,0.00,Wunderground v.1.15,2013-02-18 13:20:00,
2013-02-18 08:30:00,21.9,20.2,30.40,ESE,115,0.0,0.0,93,0.00,,,0.00,Wunderground v.1.15,2013-02-18 13:30:00,
2013-02-18 08:40:00,23.4,20.9,30.40,South,169,0.0,0.0,90,0.00,,,0.00,Wunderground v.1.15,2013-02-18 13:40:00,
2013-02-18 08:45:00,25.4,20.4,30.41,South,169,0.0,0.0,81,0.00,,,0.00,Wunderground v.1.15,2013-02-18 13:45:00,
2013-02-18 08:50:00,27.4,20.5,30.40,WSW,255,0.0,0.0,75,0.00,,,0.00,Wunderground v.1.15,2013-02-18 13:50:00,
2013-02-18 09:00:00,29.9,21.3,30.41,South,182,0.0,0.0,70,0.00,,,0.00,Wunderground v.1.15,2013-02-18 14:00:00,
2013-02-18 09:05:00,30.9,20.1,30.41,SSE,155,0.0,1.0,64,0.00,,,0.00,Wunderground v.1.15,2013-02-18 14:05:00,
2013-02-18 09:10:00,31.8,21.0,30.41,SE,140,0.0,0.0,64,0.00,,,0.00,Wunderground v.1.15,2013-02-18 14:10:00,
2013-02-18 09:20:00,33.4,19.4,30.40,SSE,148,1.0,1.0,56,0.00,,,0.00,Wunderground v.1.15,2013-02-18 14:20:00,
2013-02-18 09:25:00,34.1,20.0,30.40,SSE,148,1.0,3.0,56,0.00,,,0.00,Wunderground v.1.15,2013-02-18 14:25:00,
2013-02-18 09:30:00,34.7,18.9,30.41,SSE,159,1.0,1.0,52,0.00,,,0.00,Wunderground v.1.15,2013-02-18 14:30:00,
2013-02-18 09:40:00,35.9,19.0,30.40,SSW,197,1.0,1.0,50,0.00,,,0.00,Wunderground v.1.15,2013-02-18 14:40:00,
2013-02-18 09:45:00,36.5,19.1,30.41,South,184,0.0,1.0,49,0.00,,,0.00,Wunderground v.1.15,2013-02-18 14:45:00,
2013-02-18 09:50:00,37.2,19.3,30.40,SSE,156,0.0,3.0,48,0.00,,,0.00,Wunderground v.1.15,2013-02-18 14:50:00,
2013-02-18 09:55:00,37.8,19.3,30.40,South,172,1.0,3.0,47,0.00,,,0.00,Wunderground v.1.15,2013-02-18 14:55:00,
2013-02-18 10:05:00,39.1,18.5,30.40,South,171,1.0,2.0,43,0.00,,,0.00,Wunderground v.1.15,2013-02-18 15:05:00,
2013-02-18 10:10:00,39.5,18.8,30.40,South,176,1.0,1.0,43,0.00,,,0.00,Wunderground v.1.15,2013-02-18 15:10:00,
2013-02-18 10:15:00,40.1,20.4,30.40,South,178,1.0,1.0,45,0.00,,,0.00,Wunderground v.1.15,2013-02-18 15:15:00,
2013-02-18 10:20:00,40.7,18.8,30.40,SSW,198,1.0,1.0,41,0.00,,,0.00,Wunderground v.1.15,2013-02-18 15:20:00,
2013-02-18 10:30:00,41.5,18.9,30.40,SSE,148,1.0,2.0,40,0.00,,,0.00,Wunderground v.1.15,2013-02-18 15:30:00,
2013-02-18 10:35:00,41.7,19.7,30.40,SE,142,1.0,2.0,41,0.00,,,0.00,Wunderground v.1.15,2013-02-18 15:35:00,
2013-02-18 10:45:00,42.3,19.1,30.40,SSW,209,1.0,2.0,39,0.00,,,0.00,Wunderground v.1.15,2013-02-18 15:45:00,
2013-02-18 10:50:00,42.8,19.5,30.40,South,177,1.0,2.0,39,0.00,,,0.00,Wunderground v.1.15,2013-02-18 15:50:00,
2013-02-18 10:55:00,43.2,20.5,30.40,South,177,1.0,2.0,40,0.00,,,0.00,Wunderground v.1.15,2013-02-18 15:55:00,
2013-02-18 11:05:00,43.5,18.9,30.40,West,266,2.0,7.0,37,0.00,,,0.00,Wunderground v.1.15,2013-02-18 16:05:00,
2013-02-18 11:10:00,44.0,20.6,30.40,SSE,167,3.0,3.0,39,0.00,,,0.00,Wunderground v.1.15,2013-02-18 16:10:00,
2013-02-18 11:15:00,44.4,19.1,30.40,SSW,210,3.0,3.0,36,0.00,,,0.00,Wunderground v.1.15,2013-02-18 16:15:00,
2013-02-18 11:25:00,44.9,18.2,30.39,WSW,239,1.0,2.0,34,0.00,,,0.00,Wunderground v.1.15,2013-02-18 16:25:00,
2013-02-18 11:30:00,45.3,19.2,30.39,West,273,2.0,2.0,35,0.00,,,0.00,Wunderground v.1.15,2013-02-18 16:30:00,
2013-02-18 11:35:00,45.4,20.0,30.39,SSE,156,2.0,4.0,36,0.00,,,0.00,Wunderground v.1.15,2013-02-18 16:35:00,
2013-02-18 11:45:00,46.0,21.1,30.38,WSW,246,2.0,3.0,37,0.00,,,0.00,Wunderground v.1.15,2013-02-18 16:45:00,
2013-02-18 11:50:00,46.3,20.8,30.38,SSW,199,2.0,2.0,36,0.00,,,0.00,Wunderground v.1.15,2013-02-18 16:50:00,
2013-02-18 12:00:00,47.0,23.3,30.38,SSW,213,2.0,2.0,39,0.00,,,0.00,Wunderground v.1.15,2013-02-18 17:00:00,
2013-02-18 12:05:00,47.2,21.6,30.38,South,182,2.0,2.0,36,0.00,,,0.00,Wunderground v.1.15,2013-02-18 17:05:00,
2013-02-18 12:15:00,47.4,21.7,30.37,SSE,147,2.0,3.0,36,0.00,,,0.00,Wunderground v.1.15,2013-02-18 17:15:00,
2013-02-18 12:20:00,47.2,20.9,30.37,SSE,155,3.0,3.0,35,0.00,,,0.00,Wunderground v.1.15,2013-02-18 17:20:00,
2013-02-18 12:25:00,47.4,21.1,30.36,South,177,2.0,3.0,35,0.00,,,0.00,Wunderground v.1.15,2013-02-18 17:25:00,
2013-02-18 12:35:00,48.0,22.3,30.36,SSE,159,2.0,3.0,36,0.00,,,0.00,Wunderground v.1.15,2013-02-18 17:35:00,
2013-02-18 12:40:00,48.3,23.8,30.35,South,188,2.0,2.0,38,0.00,,,0.00,Wunderground v.1.15,2013-02-18 17:40:00,
2013-02-18 12:50:00,48.8,23.0,30.35,South,169,2.0,3.0,36,0.00,,,0.00,Wunderground v.1.15,2013-02-18 17:50:00,
2013-02-18 12:55:00,49.1,22.6,30.35,SSE,158,2.0,4.0,35,0.00,,,0.00,Wunderground v.1.15,2013-02-18 17:55:00,
2013-02-18 13:00:00,49.0,21.8,30.34,South,174,2.0,2.0,34,0.00,,,0.00,Wunderground v.1.15,2013-02-18 18:00:00,
2013-02-18 13:05:00,48.7,22.9,30.34,WSW,240,3.0,3.0,36,0.00,,,0.00,Wunderground v.1.15,2013-02-18 18:05:00,
2013-02-18 13:15:00,49.3,24.1,30.33,SE,142,3.0,3.0,37,0.00,,,0.00,Wunderground v.1.15,2013-02-18 18:15:00,
2013-02-18 13:20:00,49.9,23.3,30.33,SSE,167,3.0,3.0,35,0.00,,,0.00,Wunderground v.1.15,2013-02-18 18:20:00,
2013-02-18 13:25:00,49.9,22.6,30.32,ESE,121,3.0,3.0,34,0.00,,,0.00,Wunderground v.1.15,2013-02-18 18:25:00,
2013-02-18 13:35:00,50.4,23.1,30.32,SSE,152,3.0,3.0,34,0.00,,,0.00,Wunderground v.1.15,2013-02-18 18:35:00,
2013-02-18 13:45:00,50.9,24.2,30.31,SSW,192,2.0,3.0,35,0.00,,,0.00,Wunderground v.1.15,2013-02-18 18:45:00,
2013-02-18 13:50:00,51.2,22.3,30.31,South,186,2.0,2.0,32,0.00,,,0.00,Wunderground v.1.15,2013-02-18 18:50:00,
2013-02-18 14:00:00,51.9,22.9,30.31,South,171,2.0,2.0,32,0.00,,,0.00,Wunderground v.1.15,2013-02-18 19:00:00,
2013-02-18 14:05:00,52.3,24.7,30.31,SSE,162,3.0,3.0,34,0.00,,,0.00,Wunderground v.1.15,2013-02-18 19:05:00,
2013-02-18 14:15:00,52.8,23.7,30.30,South,173,2.0,2.0,32,0.00,,,0.00,Wunderground v.1.15,2013-02-18 19:15:00,
2013-02-18 14:20:00,53.2,21.7,30.30,SSW,207,2.0,2.0,29,0.00,,,0.00,Wunderground v.1.15,2013-02-18 19:20:00,
2013-02-18 14:25:00,53.3,24.2,30.30,SSE,154,2.0,7.0,32,0.00,,,0.00,Wunderground v.1.15,2013-02-18 19:25:00,
2013-02-18 14:35:00,53.3,23.4,30.30,South,191,3.0,4.0,31,0.00,,,0.00,Wunderground v.1.15,2013-02-18 19:35:00,
2013-02-18 14:40:00,53.6,22.9,30.30,West,268,2.0,5.0,30,0.00,,,0.00,Wunderground v.1.15,2013-02-18 19:40:00,
2013-02-18 14:45:00,53.9,23.9,30.30,SSW,198,2.0,6.0,31,0.00,,,0.00,Wunderground v.1.15,2013-02-18 19:45:00,
2013-02-18 14:55:00,53.6,22.9,30.29,SSW,200,2.0,6.0,30,0.00,,,0.00,Wunderground v.1.15,2013-02-18 19:55:00,
2013-02-18 15:00:00,53.6,24.4,30.29,South,182,3.0,3.0,32,0.00,,,0.00,Wunderground v.1.15,2013-02-18 20:00:00,
2013-02-18 15:10:00,53.5,24.3,30.29,SSE,160,3.0,3.0,32,0.00,,,0.00,Wunderground v.1.15,2013-02-18 20:10:00,
2013-02-18 15:20:00,53.6,23.7,30.29,South,181,3.0,3.0,31,0.00,,,0.00,Wunderground v.1.15,2013-02-18 20:20:00,
2013-02-18 15:25:00,53.8,22.2,30.29,SSW,212,2.0,3.0,29,0.00,,,0.00,Wunderground v.1.15,2013-02-18 20:25:00,
2013-02-18 15:30:00,53.8,23.8,30.29,SSE,161,2.0,4.0,31,0.00,,,0.00,Wunderground v.1.15,2013-02-18 20:30:00,
2013-02-18 15:40:00,52.8,23.0,30.29,SSW,201,3.0,3.0,31,0.00,,,0.00,Wunderground v.1.15,2013-02-18 20:40:00,
2013-02-18 15:45:00,52.7,21.3,30.28,SSW,196,3.0,3.0,29,0.00,,,0.00,Wunderground v.1.15,2013-02-18 20:45:00,
2013-02-18 15:50:00,52.5,22.7,30.28,SSW,206,3.0,4.0,31,0.00,,,0.00,Wunderground v.1.15,2013-02-18 20:50:00,
2013-02-18 16:00:00,52.2,23.9,30.28,South,179,3.0,3.0,33,0.00,,,0.00,Wunderground v.1.15,2013-02-18 21:00:00,
2013-02-18 16:10:00,51.6,23.4,30.29,South,182,3.0,3.0,33,0.00,,,0.00,Wunderground v.1.15,2013-02-18 21:10:00,
2013-02-18 16:20:00,51.0,22.9,30.28,SSW,205,2.0,3.0,33,0.00,,,0.00,Wunderground v.1.15,2013-02-18 21:20:00,
2013-02-18 16:25:00,50.8,24.8,30.28,SSE,151,2.0,4.0,36,0.00,,,0.00,Wunderground v.1.15,2013-02-18 21:25:00,
2013-02-18 16:35:00,50.6,25.3,30.28,South,188,2.0,3.0,37,0.00,,,0.00,Wunderground v.1.15,2013-02-18 21:35:00,
2013-02-18 16:40:00,50.8,24.8,30.28,South,180,2.0,2.0,36,0.00,,,0.00,Wunderground v.1.15,2013-02-18 21:40:00,
2013-02-18 16:45:00,50.8,24.1,30.28,SW,232,2.0,2.0,35,0.00,,,0.00,Wunderground v.1.15,2013-02-18 21:45:00,
2013-02-18 16:55:00,50.7,24.7,30.28,South,177,2.0,3.0,36,0.00,,,0.00,Wunderground v.1.15,2013-02-18 21:55:00,
2013-02-18 17:00:00,50.5,25.2,30.28,SSW,203,1.0,1.0,37,0.00,,,0.00,Wunderground v.1.15,2013-02-18 22:00:00,
2013-02-18 17:05:00,50.1,24.8,30.28,SSE,158,2.0,5.0,37,0.00,,,0.00,Wunderground v.1.15,2013-02-18 22:05:00,
2013-02-18 17:15:00,49.9,24.6,30.28,SSE,163,1.0,2.0,37,0.00,,,0.00,Wunderground v.1.15,2013-02-18 22:15:00,
2013-02-18 17:20:00,49.9,24.0,30.28,South,189,1.0,2.0,36,0.00,,,0.00,Wunderground v.1.15,2013-02-18 22:20:00,
2013-02-18 17:25:00,49.8,23.9,30.28,South,184,1.0,2.0,36,0.00,,,0.00,Wunderground v.1.15,2013-02-18 22:25:00,
2013-02-18 17:35:00,49.4,24.2,30.29,SSE,158,1.0,4.0,37,0.00,,,0.00,Wunderground v.1.15,2013-02-18 22:35:00,
2013-02-18 17:40:00,49.1,23.9,30.29,South,183,1.0,1.0,37,0.00,,,0.00,Wunderground v.1.15,2013-02-18 22:40:00,
2013-02-18 17:45:00,48.9,25.0,30.29,SSW,195,1.0,1.0,39,0.00,,,0.00,Wunderground v.1.15,2013-02-18 22:45:00,
2013-02-18 17:55:00,48.3,25.7,30.29,South,188,0.0,1.0,41,0.00,,,0.00,Wunderground v.1.15,2013-02-18 22:55:00,
2013-02-18 18:00:00,47.9,25.3,30.29,South,178,0.0,0.0,41,0.00,,,0.00,Wunderground v.1.15,2013-02-18 23:00:00,
2013-02-18 18:05:00,47.6,24.4,30.29,South,178,0.0,0.0,40,0.00,,,0.00,Wunderground v.1.15,2013-02-18 23:05:00,
2013-02-18 18:15:00,47.1,25.2,30.29,South,185,0.0,0.0,42,0.00,,,0.00,Wunderground v.1.15,2013-02-18 23:15:00,
2013-02-18 18:20:00,46.8,25.5,30.29,South,185,0.0,0.0,43,0.00,,,0.00,Wunderground v.1.15,2013-02-18 23:20:00,
2013-02-18 18:25:00,46.4,25.6,30.29,South,185,0.0,0.0,44,0.00,,,0.00,Wunderground v.1.15,2013-02-18 23:25:00,
2013-02-18 18:35:00,45.5,26.4,30.29,South,185,0.0,0.0,47,0.00,,,0.00,Wunderground v.1.15,2013-02-18 23:35:00,
2013-02-18 18:40:00,44.9,26.4,30.29,South,185,0.0,0.0,48,0.00,,,0.00,Wunderground v.1.15,2013-02-18 23:40:00,
2013-02-18 18:50:00,43.6,27.1,30.29,South,185,0.0,0.0,52,0.00,,,0.00,Wunderground v.1.15,2013-02-18 23:50:00,
2013-02-18 18:55:00,42.9,27.4,30.28,South,185,0.0,0.0,54,0.00,,,0.00,Wunderground v.1.15,2013-02-18 23:55:00,
2013-02-18 19:00:00,42.3,26.8,30.29,West,277,0.0,0.0,54,0.00,,,0.00,Wunderground v.1.15,2013-02-19 00:00:00,
2013-02-18 19:10:00,41.3,27.2,30.28,South,174,0.0,0.0,57,0.00,,,0.00,Wunderground v.1.15,2013-02-19 00:10:00,
2013-02-18 19:20:00,41.0,26.9,30.28,South,173,0.0,0.0,57,0.00,,,0.00,Wunderground v.1.15,2013-02-19 00:20:00,
2013-02-18 19:25:00,40.8,26.3,30.28,South,173,0.0,0.0,56,0.00,,,0.00,Wunderground v.1.15,2013-02-19 00:25:00,
2013-02-18 19:35:00,40.4,26.8,30.28,South,173,0.0,0.0,58,0.00,,,0.00,Wunderground v.1.15,2013-02-19 00:35:00,
2013-02-18 19:40:00,40.1,26.5,30.28,South,173,0.0,0.0,58,0.00,,,0.00,Wunderground v.1.15,2013-02-19 00:40:00,
2013-02-18 19:50:00,39.7,26.5,30.28,South,173,0.0,0.0,59,0.00,,,0.00,Wunderground v.1.15,2013-02-19 00:50:00,
2013-02-18 19:55:00,39.6,26.8,30.27,South,173,0.0,0.0,60,0.00,,,0.00,Wunderground v.1.15,2013-02-19 00:55:00,
2013-02-18 20:00:00,39.5,26.8,30.27,South,173,0.0,0.0,60,0.00,,,0.00,Wunderground v.1.15,2013-02-19 01:00:00,
2013-02-18 20:10:00,39.3,27.0,30.27,South,173,0.0,0.0,61,0.00,,,0.00,Wunderground v.1.15,2013-02-19 01:10:00,
2013-02-18 20:15:00,39.2,26.9,30.27,South,173,0.0,0.0,61,0.00,,,0.00,Wunderground v.1.15,2013-02-19 01:15:00,
2013-02-18 20:20:00,39.0,27.1,30.27,South,173,0.0,0.0,62,0.00,,,0.00,Wunderground v.1.15,2013-02-19 01:20:00,
2013-02-18 20:30:00,38.6,26.7,30.27,South,173,0.0,0.0,62,0.00,,,0.00,Wunderground v.1.15,2013-02-19 01:30:00,
2013-02-18 20:35:00,38.6,27.1,30.27,South,173,0.0,0.0,63,0.00,,,0.00,Wunderground v.1.15,2013-02-19 01:35:00,
2013-02-18 20:40:00,39.1,26.4,30.27,South,173,0.0,0.0,60,0.00,,,0.00,Wunderground v.1.15,2013-02-19 01:40:00,
2013-02-18 20:50:00,40.6,27.0,30.27,South,173,0.0,0.0,58,0.00,,,0.00,Wunderground v.1.15,2013-02-19 01:50:00,
2013-02-18 20:55:00,41.1,26.6,30.27,South,173,0.0,1.0,56,0.00,,,0.00,Wunderground v.1.15,2013-02-19 01:55:00,
2013-02-18 21:00:00,41.4,26.4,30.26,South,176,0.0,0.0,55,0.00,,,0.00,Wunderground v.1.15,2013-02-19 02:00:00,
2013-02-18 21:10:00,41.5,26.5,30.26,South,186,0.0,0.0,55,0.00,,,0.00,Wunderground v.1.15,2013-02-19 02:10:00,
2013-02-18 21:15:00,41.4,26.4,30.26,South,186,0.0,0.0,55,0.00,,,0.00,Wunderground v.1.15,2013-02-19 02:15:00,
2013-02-18 21:20:00,41.2,26.2,30.26,South,186,0.0,0.0,55,0.00,,,0.00,Wunderground v.1.15,2013-02-19 02:20:00,
2013-02-18 21:30:00,41.1,26.1,30.25,South,184,0.0,0.0,55,0.00,,,0.00,Wunderground v.1.15,2013-02-19 02:30:00,
2013-02-18 21:35:00,41.0,26.5,30.25,South,184,0.0,1.0,56,0.00,,,0.00,Wunderground v.1.15,2013-02-19 02:35:00,
2013-02-18 21:45:00,40.9,26.4,30.26,South,186,0.0,0.0,56,0.00,,,0.00,Wunderground v.1.15,2013-02-19 02:45:00,
2013-02-18 21:50:00,40.8,26.3,30.26,South,186,0.0,0.0,56,0.00,,,0.00,Wunderground v.1.15,2013-02-19 02:50:00,
2013-02-18 21:55:00,40.6,26.1,30.25,South,186,0.0,0.0,56,0.00,,,0.00,Wunderground v.1.15,2013-02-19 02:55:00,
2013-02-18 22:05:00,40.1,26.9,30.25,South,186,0.0,0.0,59,0.00,,,0.00,Wunderground v.1.15,2013-02-19 03:05:00,
2013-02-18 22:15:00,39.1,26.8,30.26,South,186,0.0,0.0,61,0.00,,,0.00,Wunderground v.1.15,2013-02-19 03:15:00,
2013-02-18 22:20:00,38.5,26.6,30.26,South,186,0.0,0.0,62,0.00,,,0.00,Wunderground v.1.15,2013-02-19 03:20:00,
2013-02-18 22:25:00,38.0,26.9,30.25,South,186,0.0,0.0,64,0.00,,,0.00,Wunderground v.1.15,2013-02-19 03:25:00,
2013-02-18 22:35:00,37.3,26.2,30.25,South,186,0.0,0.0,64,0.00,,,0.00,Wunderground v.1.15,2013-02-19 03:35:00,
2013-02-18 22:40:00,37.5,26.4,30.25,South,186,0.0,0.0,64,0.00,,,0.00,Wunderground v.1.15,2013-02-19 03:40:00,
2013-02-18 22:45:00,37.7,26.6,30.25,South,186,0.0,0.0,64,0.00,,,0.00,Wunderground v.1.15,2013-02-19 03:45:00,
2013-02-18 22:55:00,38.3,26.0,30.25,SSW,193,0.0,0.0,61,0.00,,,0.00,Wunderground v.1.15,2013-02-19 03:55:00,
2013-02-18 23:00:00,38.5,26.2,30.25,South,180,0.0,0.0,61,0.00,,,0.00,Wunderground v.1.15,2013-02-19 04:00:00,
2013-02-18 23:05:00,38.6,26.3,30.25,South,172,0.0,0.0,61,0.00,,,0.00,Wunderground v.1.15,2013-02-19 04:05:00,
2013-02-18 23:10:00,38.9,26.6,30.25,South,171,1.0,2.0,61,0.00,,,0.00,Wunderground v.1.15,2013-02-19 04:10:00,
2013-02-18 23:20:00,39.2,26.9,30.24,South,170,1.0,1.0,61,0.00,,,0.00,Wunderground v.1.15,2013-02-19 04:20:00,
2013-02-18 23:30:00,39.3,26.6,30.23,South,185,1.0,1.0,60,0.00,,,0.00,Wunderground v.1.15,2013-02-19 04:30:00,
2013-02-18 23:35:00,39.3,27.0,30.23,SSW,200,1.0,1.0,61,0.00,,,0.00,Wunderground v.1.15,2013-02-19 04:35:00,
2013-02-18 23:40:00,39.2,26.9,30.23,South,190,1.0,2.0,61,0.00,,,0.00,Wunderground v.1.15,2013-02-19 04:40:00,
2013-02-18 23:45:00,39.2,26.5,30.22,South,176,2.0,2.0,60,0.00,,,0.00,Wunderground v.1.15,2013-02-19 04:45:00,
2013-02-18 23:55:00,39.2,26.5,30.22,South,185,2.0,2.0,60,0.00,,,0.00,Wunderground v.1.15,2013-02-19 04:55:00,